TimePST,TemperatureF,Dew PointF,Humidity,Sea Level PressureIn,VisibilityMPH,Wind Direction,Wind SpeedMPH,Gust SpeedMPH,PrecipitationIn,Events,Conditions,WindDirDegrees,DateUTC
12:53 AM,46.0,43.0,89,29.75,8.0,ENE,10.4,-,0.13,Rain,Light Rain,70,2012-12-04 08:53:00
1:53 AM,46.0,43.0,89,29.70,9.0,East,11.5,-,0.08,Rain,Light Rain,80,2012-12-04 09:53:00
2:44 AM,46.4,42.8,87,29.71,8.0,East,8.1,-,0.08,Rain,Light Rain,100,2012-12-04 10:44:00
4:17 AM,46.4,44.6,93,29.73,9.0,ENE,3.5,-,0.01,Rain,Light Rain,70,2012-12-04 12:17:00
4:31 AM,46.4,44.6,93,29.74,10.0,NNE,3.5,-,0.01,Rain,Light Rain,30,2012-12-04 12:31:00
4:53 AM,46.0,44.1,93,29.75,8.0,North,4.6,-,0.02,Rain,Light Rain,360,2012-12-04 12:53:00
5:27 AM,44.6,42.8,93,29.76,7.0,NNW,4.6,-,0.01,Rain,Light Rain,330,2012-12-04 13:27:00
5:41 AM,44.6,42.8,93,29.76,7.0,NW,5.8,-,0.01,Rain,Light Rain,320,2012-12-04 13:41:00
5:53 AM,45.0,43.0,93,29.77,7.0,NW,4.6,-,0.01,Rain,Light Rain,320,2012-12-04 13:53:00
6:36 AM,44.6,42.8,93,29.78,10.0,Variable,5.8,-,0.01,Rain,Light Rain,0,2012-12-04 14:36:00
6:53 AM,45.0,43.0,93,29.79,10.0,North,5.8,-,0.01,Rain,Light Rain,350,2012-12-04 14:53:00
7:38 AM,44.6,42.8,93,29.80,10.0,NNW,6.9,-,0.01,,Overcast,340,2012-12-04 15:38:00
7:53 AM,44.1,42.1,93,29.81,10.0,North,5.8,-,0.01,Rain,Light Rain,360,2012-12-04 15:53:00
8:00 AM,44.6,42.8,93,29.81,9.0,NNW,6.9,-,0.01,Rain,Light Rain,340,2012-12-04 16:00:00
8:08 AM,44.6,42.8,93,29.80,10.0,NNW,8.1,-,0.01,Rain,Light Rain,330,2012-12-04 16:08:00
8:53 AM,45.0,43.0,93,29.83,10.0,NW,3.5,-,0.01,Rain,Light Rain,310,2012-12-04 16:53:00
9:09 AM,44.6,42.8,93,29.82,10.0,NW,3.5,-,0.00,,Overcast,320,2012-12-04 17:09:00
9:35 AM,46.4,42.8,87,29.82,10.0,North,4.6,-,0.00,,Overcast,350,2012-12-04 17:35:00
9:53 AM,46.0,43.0,89,29.84,10.0,NW,6.9,-,0.00,,Overcast,310,2012-12-04 17:53:00
10:53 AM,46.9,44.1,90,29.83,10.0,Calm,Calm,-,N/A,,Overcast,0,2012-12-04 18:53:00
11:53 AM,48.0,45.0,89,29.83,10.0,Calm,Calm,-,N/A,,Overcast,0,2012-12-04 19:53:00
12:46 PM,48.2,44.6,87,29.80,10.0,Calm,Calm,-,N/A,,Mostly Cloudy,0,2012-12-04 20:46:00
12:53 PM,48.0,45.0,89,29.79,10.0,Calm,Calm,-,N/A,,Mostly Cloudy,0,2012-12-04 20:53:00
1:07 PM,48.2,44.6,87,29.79,10.0,Calm,Calm,-,N/A,,Overcast,0,2012-12-04 21:07:00
1:53 PM,48.9,46.0,90,29.78,10.0,Calm,Calm,-,N/A,,Overcast,0,2012-12-04 21:53:00
2:53 PM,48.9,46.0,90,29.77,10.0,Calm,Calm,-,N/A,,Overcast,0,2012-12-04 22:53:00
3:53 PM,48.9,46.0,90,29.78,10.0,Variable,3.5,-,0.00,,Overcast,0,2012-12-04 23:53:00
4:53 PM,48.0,46.0,93,29.76,8.0,Calm,Calm,-,0.02,Rain,Light Rain,0,2012-12-05 00:53:00
5:53 PM,48.0,46.0,93,29.77,7.0,Calm,Calm,-,0.04,Rain,Light Rain,0,2012-12-05 01:53:00
6:53 PM,48.9,46.9,93,29.77,7.0,South,4.6,-,0.01,Rain,Light Rain,180,2012-12-05 02:53:00
7:53 PM,51.1,48.0,89,29.76,10.0,Variable,3.5,-,0.02,Rain,Light Rain,0,2012-12-05 03:53:00
8:53 PM,50.0,48.0,93,29.76,10.0,NW,13.8,-,0.01,Rain,Light Rain,320,2012-12-05 04:53:00
9:53 PM,50.0,46.9,89,29.79,10.0,WNW,6.9,-,0.03,Rain,Light Rain,300,2012-12-05 05:53:00
10:53 PM,51.1,45.0,80,29.81,10.0,WNW,20.7,26.5,0.00,Rain,Light Rain,300,2012-12-05 06:53:00
11:53 PM,50.0,45.0,83,29.87,10.0,WNW,11.5,-,0.00,,Overcast,300,2012-12-05 07:53:00